This demonstration page uses our WeatherBlox Daily Observations layout. Learn more.

40.92945, -100.16068

Hourly Observations for March 13, 2019

Temp ( °F °C ) Dew Point ( °F °C ) Humidity (%) Winds ( mph kmh ) Pressure ( in mb ) Visibility ( mi km ) Precip ( " mm )
12:15 am 00:15 Cloudy with Mist and Fog 49 9.2 47 8.5 95 95 ESE 6 9 29.62 1003 2.5 4.02336 0 0
12:35 am 00:35 Cloudy with Mist and Fog 49 9.6 48 9 96 96 SE 8 13 29.59 1002 1.75 2.816352 0 0
12:55 am 00:55 Cloudy with Nearby Thunderstorms 49 9.7 49 9.2 97 97 SE 9 15 29.56 1001 1.5 2.414016 0 0
1:15 am 01:15 Cloudy 49 9.3 48 8.7 96 96 ESE 8 13 29.53 1000 0.5 0.804672 0 0
1:35 am 01:35 Cloudy 49 9.2 47 8.6 96 96 ESE 8 13 29.53 1000 0.5 0.804672 0 0
1:55 am 01:55 Cloudy with Thunderstorms 47 8.5 46 8 97 97 E 7 11 29.56 1001 0.5 0.804672 0 0
2:15 am 02:15 Cloudy with Light Thunderstorms 47 8.5 46 7.9 96 96 ESE 6 9 29.56 1001 0.5 0.804672 0 0
2:35 am 02:35 Cloudy with Thunderstorms 47 8.5 47 8.5 100 100 ESE 6 9 29.56 1001 1 1.609344 0.03 0.762
2:55 am 02:55 Cloudy with Thunderstorms 47 8.4 47 8.4 100 100 E 7 11 29.47 998 1.25 2.01168 0.14 3.556
3:15 am 03:15 Cloudy with Thunderstorms 47 8.2 47 8.2 100 100 SE 6 9 29.53 1000 2 3.218688 0.05 1.27
3:35 am 03:35 Cloudy with Light Snow 47 8.3 47 8.3 100 100 E 7 11 29.47 998 1 1.609344 0.31 7.874
3:55 am 03:55 Cloudy with Thunderstorms 48 8.7 48 8.7 100 100 ESE 7 11 29.47 998 2 3.218688 0.43 10.922
4:15 am 04:15 Cloudy with Rain 49 9.3 49 9.3 100 100 ESE 10 17 29.44 997 4 6.437376 0.09 2.286
4:35 am 04:35 Cloudy with Thunderstorms 49 9.3 49 9.3 100 100 ESE 8 13 29.44 997 4 6.437376 0.18 4.572
4:55 am 04:55 Cloudy 49 9.3 49 9.3 100 100 ESE 10 17 29.41 996 5 8.04672 0.21 5.334
5:15 am 05:15 Cloudy with Light Rain 49 9.6 49 9.6 100 100 ESE 10 17 29.38 995 5 8.04672 0 0
5:35 am 05:35 Cloudy with Mist and Fog 49 9.3 49 9.3 100 100 E 13 20 29.38 995 2 3.218688 0 0
5:55 am 05:55 Cloudy with Drizzle 48 9 48 9 100 100 E 13 20 29.38 995 4 6.437376 0 0
6:15 am 06:15 Cloudy 47 8.1 47 8.1 100 100 E 14 22 29.35 994 7 11.265408 0 0
6:35 am 06:35 Cloudy with Rain 46 8 46 8 100 100 E 15 24 29.35 994 7 11.265408 0.01 0.254
6:55 am 06:55 Cloudy with Light Rain 46 7.7 46 7.7 100 100 E 12 19 29.35 994 7 11.265408 0.04 1.016
7:15 am 07:15 Cloudy with Light Rain 46 7.8 46 7.8 100 100 E 13 20 29.32 993 7 11.265408 0.03 0.762
7:35 am 07:35 Cloudy with Light Rain 46 7.8 46 7.8 100 100 E 14 22 29.32 993 7 11.265408 0.06 1.524
7:55 am 07:55 Cloudy with Rain 46 7.7 46 7.7 100 100 E 18 30 29.29 992 5 8.04672 0.12 3.048
8:15 am 08:15 Cloudy with Light Rain 46 7.8 46 7.8 100 100 E 15 24 29.26 991 5 8.04672 0.06 1.524
8:35 am 08:35 Cloudy with Light Rain 46 7.7 46 7.7 100 100 E 16 26 29.26 991 5 8.04672 0.1 2.54
8:55 am 08:55 Cloudy with Light Rain 45 7.1 45 7.1 100 100 E 18 30 29.23 990 4 6.437376 0.15 3.81
9:15 am 09:15 Cloudy with Light Rain 45 7 45 7 100 100 E 17 28 29.21 989 5 8.04672 0.04 1.016
9:35 am 09:35 Cloudy with Light Rain 45 7.4 45 7.4 100 100 E 15 24 29.21 989 7 11.265408 0.07 1.778
9:55 am 09:55 Cloudy with Light Rain 46 7.7 46 7.7 100 100 E 18 30 29.18 988 5 8.04672 0.1 2.54
10:15 am 10:15 Cloudy with Light Rain 46 7.7 46 7.7 100 100 E 17 28 29.15 987 7 11.265408 0.02 0.508
10:35 am 10:35 Cloudy 46 7.5 46 7.5 100 100 E 22 35 29.06 984 10 16.09344 0.02 0.508
10:55 am 10:55 Cloudy 46 7.8 46 7.8 100 100 E 21 33 29.06 984 10 16.09344 0.02 0.508
11:15 am 11:15 Cloudy 48 8.7 48 8.7 100 100 E 15 24 29.09 985 7 11.265408 0 0
11:35 am 11:35 Cloudy with Fog 49 9.3 49 9.3 100 100 E 16 26 29.06 984 0.5 0.804672 0 0
11:55 am 11:55 Cloudy with Light Rain 49 9.5 49 9.5 100 100 E 17 28 29.03 983 0.5 0.804672 0.01 0.254
12:15 pm 12:15 Cloudy with Light Rain 49 9.3 49 9.3 100 100 E 15 24 29.03 983 1.25 2.01168 0.02 0.508
12:35 pm 12:35 Cloudy with Light Rain 49 9.7 49 9.7 100 100 E 16 26 29 982 1.75 2.816352 0.06 1.524
12:55 pm 12:55 Cloudy with Light Rain 51 10.5 51 10.5 100 100 SE 18 30 28.97 981 4 6.437376 0.09 2.286
1:15 pm 13:15 Cloudy with Rain 51 10.5 51 10.5 100 100 S 13 20 28.97 981 10 16.09344 0 0
1:35 pm 13:35 Cloudy 51 10.5 51 10.5 100 100 S 14 22 28.97 981 10 16.09344 0 0
1:55 pm 13:55 Cloudy 53 11.7 53 11.7 100 100 SSE 17 28 28.97 981 10 16.09344 0 0
2:15 pm 14:15 Cloudy 54 12.3 54 12.3 100 100 SSE 20 31 28.97 981 10 16.09344 0.01 0.254
2:35 pm 14:35 Mostly Cloudy 53 11.7 50 9.8 88 88 SSE 17 28 28.97 981 10 16.09344 0.01 0.254
2:55 pm 14:55 Cloudy 54 12.4 48 9 80 80 S 23 37 28.97 981 10 16.09344 0.01 0.254
3:15 pm 15:15 Mostly Cloudy 57 13.7 49 9.5 76 76 S 18 30 28.94 980 10 16.09344 0 0
3:35 pm 15:35 Mostly Cloudy 57 13.9 47 8.6 71 71 S 20 31 28.94 980 10 16.09344 0 0
3:55 pm 15:55 Mostly Cloudy 57 13.7 46 7.6 67 67 SSE 18 30 28.94 980 10 16.09344 0 0
4:15 pm 16:15 Cloudy 56 13.5 44 6.4 62 62 S 17 28 28.94 980 10 16.09344 0 0
4:35 pm 16:35 Cloudy 56 13.6 44 6.5 62 62 S 17 28 28.94 980 10 16.09344 0 0
4:55 pm 16:55 Cloudy 53 11.5 42 5.8 68 68 SSE 26 43 28.97 981 10 16.09344 0 0
5:15 pm 17:15 Cloudy with Rain 51 10.5 43 6.2 75 75 S 12 19 28.97 981 10 16.09344 0 0
5:35 pm 17:35 Cloudy 51 10.7 43 6.3 74 74 SE 3 6 28.97 981 10 16.09344 0 0
5:55 pm 17:55 Cloudy with Light Rain 52 10.9 43 6.3 73 73 Calm 28.97 981 10 16.09344 0 0
6:15 pm 18:15 Cloudy with Light Rain 46 8 39 4 76 76 N 20 31 29.03 983 10 16.09344 0 0
6:35 pm 18:35 Windy with Snow Likely 39 4 36 2.3 89 89 N 23 37 29.12 986 0.75 1.207008 0.08 2.032
6:55 pm 18:55 Windy with Snow Likely 38 3.3 36 2 91 91 N 25 41 29.12 986 1 1.609344 0.15 3.81
7:15 pm 19:15 Windy with Snow Likely 37 2.6 34 1.3 91 91 N 31 50 29.09 985 1.25 2.01168 0.06 1.524
7:35 pm 19:35 Windy with Snow Likely 36 2.2 34 1 92 92 N 35 56 29.09 985 1.5 2.414016 0.12 3.048
7:55 pm 19:55 Windy with Snow Likely 36 2 33 0.7 91 91 N 35 56 29.09 985 3 4.828032 0.18 4.572
8:15 pm 20:15 Cloudy with Light Rain 35 1.7 33 0.5 92 92 N 37 59 29.12 986 3 4.828032 0.05 1.27
8:35 pm 20:35 Cloudy with Light Rain 34 0.9 32 -0.1 93 93 N 38 61 29.15 987 7 11.265408 0.08 2.032
8:55 pm 20:55 Cloudy with Light Rain 33 0.7 31 -0.4 92 92 N 39 63 29.15 987 5 8.04672 0.09 2.286
9:15 pm 21:15 Cloudy with Light Wintry Mix 33 0.5 31 -0.8 91 91 N 35 56 29.15 987 4 6.437376 0.01 0.254
9:35 pm 21:35 Cloudy with Light Wintry Mix 32 0.2 30 -1 92 92 N 31 50 29.18 988 4 6.437376 0.03 0.762
9:55 pm 21:55 Windy with Snow Likely 32 0 30 -1.3 91 91 N 33 54 29.18 988 4 6.437376 0.04 1.016
10:15 pm 22:15 Very Windy with Snow Likely 32 0 29 -1.5 90 90 N 38 61 29.18 988 1.25 2.01168 0.01 0.254
10:35 pm 22:35 Windy with Snow Likely 32 -0.1 29 -1.6 90 90 N 36 57 29.21 989 1.5 2.414016 0.02 0.508
10:55 pm 22:55 Cloudy with Snow 32 -0.2 29 -1.6 90 90 NNW 36 57 29.21 989 1 1.609344 0.03 0.762
11:15 pm 23:15 Cloudy with Snow 32 -0.2 29 -1.7 90 90 NNW 30 48 29.21 989 0.75 1.207008 0 0
11:35 pm 23:35 Cloudy with Snow 31 -0.3 29 -1.7 90 90 NNW 36 57 29.23 990 0.75 1.207008 0 0
11:55 pm 23:55 Cloudy with Snow 31 -0.3 29 -1.7 90 90 NNW 38 61 29.23 990 1 1.609344 0.01 0.254

Powered by AerisWeather